Location: Franzen
(48.6167°N, 15.3833°E)
Time: 01:24:31
(UTC+00:00)

Transit 2A - Pass Details

Date: 03 August 2021
Orbit: 594 x 964 km, 66.7° (Epoch: 27 September)

Event Time Altitude Azimuth Distance (km) Brightness Sun altitude
Rises 07:33:39 0° 282° (WNW) 2,932 8.5 37.3°
Reaches altitude 10° 07:37:04 10° 310° (NW) 2,089 7.9 37.9°
Maximum altitude 07:39:23 13° 340° (NNW) 1,916 7.9 38.2°
Drops below altitude 10° 07:41:48 10° 9° (N) 2,195 8.4 38.6°
Sets 07:45:34 0° 36° (NE) 3,212 9.4 39.2°
